Location: Knowlton
(51.2333°N, 1.2667°E)
Time: 10:27:23
(UTC+00:00)

Cosmos 1763 Rocket - Pass Details

Date: 18 April 2021
Orbit: 733 x 779 km, 74.0° (Epoch: 05 May)

Event Time Altitude Azimuth Distance (km) Brightness Sun altitude
Rises 21:54:41 0° 335° (NNW) 3,183 8.2 -22.5°
Reaches altitude 10° 21:57:03 10° 336° (NNW) 2,253 7.0 -22.6°
Maximum altitude 22:02:09 87° 65° (ENE) 742 3.3 -23.1°
Enters shadow 22:02:58 64° 150° (SSE) 816 3.3 -23.1°
